When you browse on this site, cookies collect data to enhance your experience and personalize the content and advertising you see.
Visit our Privacy Policy to learn more. By continuing to use the site, you agree to this use of cookies and data.
  • In Norway
  • List of Countries
  • For 7 days
  • Water Temperature
  • Satellite Maps
  • Weather Map
  • Weather Widgets
  • user-avatar
    Login

    Hourly Weather Tirana

    Today, 12 December, Wednesday

    Time Temperature Precipitation Wind Pressure Humidity
    00:00 +2°C° 0 mm 3 mps 756 mmHg 61%
    01:00 +2°C° 0 mm 3 mps 756 mmHg 61%
    02:00 +2°C° 0 mm 3 mps 756 mmHg 61%
    03:00 +3°C° 0 mm 2 mps 756 mmHg 61%
    04:00 +3°C° 0 mm 2 mps 756 mmHg 60%
    05:00 +3°C° 0 mm 2 mps 756 mmHg 60%
    06:00 +3°C° 0 mm 2 mps 756 mmHg 60%
    07:00 +3°C° 0 mm 2 mps 757 mmHg 60%
    08:00 +4°C° 0 mm 2 mps 757 mmHg 53%
    09:00 +6°C° 0 mm 2 mps 757 mmHg 46%
    10:00 +7°C° 0 mm 2 mps 757 mmHg 40%
    11:00 +8°C° 0 mm 2 mps 757 mmHg 36%
    12:00 +8°C° 0 mm 2 mps 757 mmHg 33%
    13:00 +10°C° 0 mm 1 mps 757 mmHg 29%
    14:00 +9°C° 0 mm 1 mps 757 mmHg 33%
    15:00 +8°C° 0 mm 1 mps 757 mmHg 37%
    16:00 +7°C° 0 mm 1 mps 757 mmHg 41%
    17:00 +6°C° 0 mm 1 mps 757 mmHg 41%
    18:00 +4°C° 0 mm 2 mps 757 mmHg 41%
    19:00 +4°C° 0 mm 2 mps 758 mmHg 42%
    20:00 +4°C° 0 mm 2 mps 758 mmHg 41%
    21:00 +2°C° 0 mm 3 mps 758 mmHg 41%
    22:00 +2°C° 0 mm 3 mps 758 mmHg 40%
    23:00 +2°C° 0 mm 3 mps 758 mmHg 40%

    Tomorrow, 13 December, Thursday

    Time Temperature Precipitation Wind Pressure Humidity
    00:00 +2°C° 0 mm 3 mps 758 mmHg 40%
    01:00 +1°C° 0 mm 4 mps 758 mmHg 40%
    02:00 +1°C° 0 mm 4 mps 757 mmHg 40%
    03:00 +3°C° 0 mm 3 mps 757 mmHg 40%
    04:00 +3°C° 0 mm 3 mps 757 mmHg 40%
    05:00 +3°C° 0 mm 4 mps 757 mmHg 40%
    06:00 +3°C° 0 mm 4 mps 757 mmHg 39%
    07:00 +3°C° 0 mm 4 mps 757 mmHg 38%
    08:00 +4°C° 0 mm 4 mps 756 mmHg 37%
    09:00 +6°C° 0 mm 4 mps 756 mmHg 35%
    10:00 +8°C° 0 mm 3 mps 756 mmHg 34%
    11:00 +9°C° 0 mm 3 mps 755 mmHg 34%
    12:00 +9°C° 0 mm 3 mps 755 mmHg 35%
    13:00 +10°C° 0 mm 3 mps 754 mmHg 36%
    14:00 +9°C° 0 mm 3 mps 754 mmHg 40%
    15:00 +8°C° 0 mm 3 mps 754 mmHg 45%
    16:00 +7°C° 0 mm 3 mps 754 mmHg 50%
    17:00 +5°C° 0 mm 3 mps 754 mmHg 53%
    18:00 +5°C° 0 mm 4 mps 755 mmHg 55%
    19:00 +4°C° 0 mm 4 mps 755 mmHg 57%
    20:00 +4°C° 0 mm 4 mps 755 mmHg 58%
    21:00 +4°C° 0 mm 4 mps 755 mmHg 59%
    22:00 +4°C° 0 mm 4 mps 755 mmHg 61%
    23:00 +4°C° 0 mm 4 mps 754 mmHg 62%

    Day after tomorrow, 14 December, Friday

    Time Temperature Precipitation Wind Pressure Humidity
    00:00 +4°C° 0 mm 4 mps 754 mmHg 63%
    01:00 +3°C° 0 mm 5 mps 754 mmHg 65%
    02:00 +3°C° 0.2 mm 5 mps 754 mmHg 67%
    03:00 +5°C° 0.2 mm 5 mps 753 mmHg 69%
    04:00 +5°C° 0.2 mm 5 mps 753 mmHg 71%
    05:00 +5°C° 0.8 mm 5 mps 753 mmHg 72%
    06:00 +5°C° 0.8 mm 5 mps 753 mmHg 74%
    07:00 +6°C° 0.8 mm 4 mps 753 mmHg 75%
    08:00 +6°C° 0.8 mm 5 mps 753 mmHg 75%
    09:00 +7°C° 0.8 mm 5 mps 753 mmHg 74%
    10:00 +8°C° 0.8 mm 5 mps 753 mmHg 74%
    11:00 +8°C° 0.5 mm 5 mps 753 mmHg 74%
    12:00 +9°C° 0.5 mm 5 mps 752 mmHg 73%
    13:00 +10°C° 0.5 mm 5 mps 752 mmHg 72%
    14:00 +9°C° 0.2 mm 5 mps 752 mmHg 74%
    15:00 +9°C° 0.2 mm 5 mps 752 mmHg 76%
    16:00 +9°C° 0.2 mm 5 mps 752 mmHg 77%
    17:00 +8°C° 0.2 mm 5 mps 752 mmHg 78%
    18:00 +8°C° 0.2 mm 5 mps 752 mmHg 78%
    19:00 +7°C° 0.2 mm 5 mps 752 mmHg 79%
    20:00 +7°C° 0.1 mm 5 mps 752 mmHg 79%
    21:00 +7°C° 0.1 mm 5 mps 752 mmHg 79%
    22:00 +7°C° 0.1 mm 5 mps 752 mmHg 79%
    23:00 +7°C° 0.1 mm 4 mps 752 mmHg 79%

    15 December, Saturday

    Time Temperature Precipitation Wind Pressure Humidity
    00:00 +7°C° 0.1 mm 4 mps 752 mmHg 79%
    01:00 +7°C° 0.1 mm 4 mps 752 mmHg 79%
    02:00 +7°C° 0.1 mm 4 mps 752 mmHg 79%
    03:00 +7°C° 0.1 mm 4 mps 751 mmHg 79%
    04:00 +7°C° 0.1 mm 4 mps 751 mmHg 79%
    05:00 +8°C° 0.1 mm 4 mps 751 mmHg 79%
    06:00 +8°C° 0.1 mm 4 mps 751 mmHg 79%
    07:00 +9°C° 0.1 mm 3 mps 751 mmHg 79%
    08:00 +10°C° 0.2 mm 3 mps 751 mmHg 78%
    09:00 +10°C° 0.2 mm 3 mps 752 mmHg 76%
    10:00 +11°C° 0.2 mm 3 mps 752 mmHg 74%
    11:00 +12°C° 0 mm 3 mps 751 mmHg 72%
    12:00 +13°C° 0 mm 3 mps 751 mmHg 69%
    13:00 +14°C° 0 mm 3 mps 751 mmHg 67%
    14:00 +13°C° 0 mm 3 mps 751 mmHg 70%
    15:00 +12°C° 0 mm 3 mps 751 mmHg 72%
    16:00 +13°C° 0 mm 2 mps 751 mmHg 75%
    17:00 +12°C° 0 mm 2 mps 751 mmHg 76%
    18:00 +11°C° 0 mm 3 mps 752 mmHg 77%
    19:00 +10°C° 0 mm 3 mps 752 mmHg 78%
    20:00 +10°C° 0.1 mm 3 mps 752 mmHg 79%
    21:00 +10°C° 0.1 mm 3 mps 752 mmHg 79%
    22:00 +10°C° 0.1 mm 3 mps 753 mmHg 80%
    23:00 +8°C° 0.4 mm 4 mps 753 mmHg 80%

    16 December, Sunday

    Time Temperature Precipitation Wind Pressure Humidity
    00:00 +8°C° 0.4 mm 4 mps 753 mmHg 80%
    01:00 +8°C° 0.4 mm 5 mps 753 mmHg 80%
    02:00 +8°C° 1.2 mm 5 mps 753 mmHg 80%
    03:00 +8°C° 1.2 mm 5 mps 753 mmHg 81%
    04:00 +8°C° 1.2 mm 5 mps 753 mmHg 81%
    05:00 +8°C° 1.4 mm 5 mps 753 mmHg 84%
    06:00 +8°C° 1.4 mm 4 mps 754 mmHg 86%
    07:00 +9°C° 1.4 mm 3 mps 754 mmHg 88%
    08:00 +8°C° 0.4 mm 4 mps 754 mmHg 87%
    09:00 +8°C° 0.4 mm 4 mps 755 mmHg 86%
    10:00 +8°C° 0.4 mm 4 mps 755 mmHg 85%
    11:00 +10°C° 0.1 mm 4 mps 755 mmHg 82%
    12:00 +10°C° 0.1 mm 4 mps 755 mmHg 79%
    13:00 +10°C° 0.1 mm 5 mps 755 mmHg 75%
    14:00 +9°C° 0 mm 5 mps 755 mmHg 77%
    15:00 +9°C° 0 mm 5 mps 756 mmHg 78%
    16:00 +8°C° 0 mm 5 mps 756 mmHg 79%
    17:00 +7°C° 0 mm 5 mps 757 mmHg 79%
    18:00 +7°C° 0 mm 5 mps 757 mmHg 79%
    19:00 +6°C° 0 mm 5 mps 758 mmHg 79%
    20:00 +6°C° 0 mm 5 mps 758 mmHg 78%
    21:00 +5°C° 0 mm 5 mps 759 mmHg 78%
    22:00 +5°C° 0 mm 4 mps 759 mmHg 77%
    23:00 +5°C° 0 mm 4 mps 759 mmHg 77%

    17 December, Monday

    Time Temperature Precipitation Wind Pressure Humidity
    00:00 +5°C° 0 mm 4 mps 759 mmHg 76%
    01:00 +5°C° 0 mm 4 mps 759 mmHg 76%
    02:00 +5°C° 0 mm 3 mps 759 mmHg 76%
    03:00 +5°C° 0 mm 3 mps 759 mmHg 75%
    04:00 +5°C° 0 mm 3 mps 759 mmHg 75%
    05:00 +6°C° 0 mm 2 mps 759 mmHg 75%
    06:00 +6°C° 0 mm 2 mps 759 mmHg 75%
    07:00 +7°C° 0 mm 2 mps 759 mmHg 75%
    08:00 +9°C° 0 mm 2 mps 759 mmHg 71%
    09:00 +11°C° 0 mm 1 mps 759 mmHg 67%
    10:00 +13°C° 0 mm 1 mps 759 mmHg 63%
    11:00 +14°C° 0 mm 1 mps 759 mmHg 61%
    12:00 +15°C° 0 mm 1 mps 759 mmHg 59%
    13:00 +15°C° 0 mm 1 mps 758 mmHg 57%
    14:00 +14°C° 0 mm 1 mps 758 mmHg 63%
    15:00 +13°C° 0 mm 1 mps 759 mmHg 68%
    16:00 +11°C° 0 mm 0 mps 759 mmHg 73%
    17:00 +11°C° 0 mm 1 mps 759 mmHg 74%
    18:00 +11°C° 0 mm 1 mps 759 mmHg 75%
    19:00 +10°C° 0 mm 1 mps 759 mmHg 76%
    20:00 +10°C° 0 mm 1 mps 759 mmHg 76%
    21:00 +9°C° 0 mm 2 mps 759 mmHg 76%
    22:00 +9°C° 0 mm 2 mps 759 mmHg 76%
    23:00 +8°C° 0 mm 3 mps 759 mmHg 76%
    Show more